This is the latest recevied weather packets stored in our database for station/object ON3FV. If no packets are shown the sender has not sent any weather packets the latest 10 day(s).
| Time | Temp. | Humidity | Pressure | Rain* | Wind** | Luminosity | Snow |
|---|---|---|---|---|---|---|---|
| 1778087254 | 14.44° C | 73% | 1009.4 hPa | - | - | - | - |
| 1778086952 | 15° C | 73% | 1009.3 hPa | - | - | - | - |
| 1778086050 | 15.56° C | 73% | 1009.3 hPa | - | - | - | - |
| 1778085167 | 15.56° C | 73% | 1009.2 hPa | - | - | - | - |
| 1778082739 | 15.56° C | 75% | 1009 hPa | - | - | - | - |
| 1778080933 | 15° C | 77% | 1009 hPa | - | - | - | - |
| 1778076438 | 14.44° C | 80% | 1009.1 hPa | - | - | - | - |
| 1778075534 | 14.44° C | 79% | 1009.2 hPa | - | - | - | - |
| 1778074912 | 14.44° C | 79% | 1009.2 hPa | - | - | - | - |
| 1778070706 | 13.89° C | 81% | 1008.9 hPa | - | - | - | - |
| 1778070397 | 13.89° C | 82% | 1008.9 hPa | - | - | - | - |
| 1778067388 | 12.78° C | 85% | 1009 hPa | - | - | - | - |
| 1778066786 | 12.78° C | 85% | 1009 hPa | - | - | - | - |
| 1778065281 | 12.22° C | 86% | 1009.1 hPa | - | - | - | - |
| 1778062572 | 11.11° C | 86% | 1009.1 hPa | - | - | - | - |
| 1778060766 | 11.11° C | 86% | 1009 hPa | - | - | - | - |
| 1778058960 | 11.11° C | 86% | 1008.7 hPa | - | - | - | - |
| 1778058660 | 11.11° C | 86% | 1008.7 hPa | - | - | - | - |
| 1778056552 | 11.11° C | 84% | 1008.4 hPa | - | - | - | - |
| 1778055649 | 11.67° C | 84% | 1008.3 hPa | - | - | - | - |
| 1778053843 | 11.67° C | 84% | 1008.2 hPa | - | - | - | - |
| 1778052960 | 11.67° C | 85% | 1008.1 hPa | - | - | - | - |
| 1778051134 | 11.11° C | 86% | 1008 hPa | - | - | - | - |
| 1778049630 | 10.56° C | 86% | 1007.9 hPa | - | - | - | - |
| 1778049328 | 10° C | 86% | 1007.9 hPa | - | - | - | - |
* Rain since midnight (hover to see other rain measurements)
** Current wind speed in m/s (hover to see current wind gust speed)